Погода в Сарани

Казахстан     49°48′04″N   72°49′44″E
темп.,
°C
ветер,
м/с
пор.,
м/с
влажн.,
%
обл.,
%
осадки,
мм/ч
давл.,
гПа
погр.,
м
1 марта, пн
пн100:00+1юз111898100 3.3 1013849
03:00+1юз111798100 1.3 1013867
06:00+1юз101697100 3.4 1013851
09:000юз101697100 2.8 1013855
12:000юз101599100 3.6 1014889
15:000юз1015100100 0.7 1014913
18:000зюз81391100 1.4 1015825
21:00−1юз71390100 0.1 1017479
2 марта, вт
вт200:00−3зюз5997100 0.6 1019423
03:00−7зсз2395100 0.3 101880
06:00−8з3595100 0.4 1018159
09:00−8з3592100 0.1 1018229
12:00−7зюз4786100 0.1 1018342
15:00−6зюз588267 0.0 1017454
18:00−9з498933 0.0 1018284
21:00−13зюз5119564 0.0 1021282
3 марта, ср
ср300:00−16зюз5109681 0.1 1023265
03:00−15юз51095100 0.1 1024373
06:00−17юз51096100 0.1 1025310
09:00−18юз5119698 0.0 1025280
12:00−13юз7119197 0.0 1025410
15:00−10юз8128698 0.0 1024499
18:00−10юз7138866 0.0 1024432
21:00−11ююз6149297 0.0 1024378
4 марта, чт
чт400:00−9ююз7149199 0.0 1024423
03:00−9ююз81588100 0.0 1022390
06:00−9ююз71682100 0.0 1022360
09:00−8ююз81681100 0.0 1021359
12:00−4ююз101586100 0.0 1019643
15:00−1ююз91483100 0.0 1017891
18:00−2ю71385100 0.0 1016537
21:00−4ю8158798 0.0 1014523
5 марта, пт
пт500:00−4ю7159699 2.1 1011707
03:00−2зюз91593100 0.4 1009685
06:00−3з81396100 1.2 1014642
09:00−5зсз81190100 0.3 1021743
12:00−8зюз7108879 0.3 1025439
15:00−6юз812780 0.0 1026639
18:00−8юз815810 0.0 1027489
21:00−11юз715873 0.0 1028359